AirNav   Bose Proflight Series 2 Wireless Aviation Headset
 
 455 users online  

54M Wolf River Airport
Rossville, Tennessee, USA

GOING TO ROSSVILLE?


FAA INFORMATION EFFECTIVE 07 NOVEMBER 2019

Location

FAA Identifier: 54M
Lat/Long: 35-03-14.4850N 089-34-48.0950W
35-03.241417N 089-34.801583W
35.0540236,-89.5800264
(estimated)
Elevation: 310 ft. / 94 m (estimated)
Variation: 02E (1985)
From city: 2 miles W of ROSSVILLE, TN
Time zone: UTC -6 (UTC -5 during Daylight Saving Time)
Zip code: 38066

Airport Operations

Airport use: Open to the public
Control tower: no
ARTCC: MEMPHIS CENTER
FSS: JACKSON FLIGHT SERVICE STATION
NOTAMs facility: MKL (NOTAM-D service available)
Attendance: 0800-1700
Wind indicator: yes
Segmented circle: no

Airport Communications

CTAF: 122.9
WX AWOS-3 at OLV (11 nm SW): 119.925 (662-893-5906)
WX AWOS-3 at FYE (13 nm NE): 119.875 (901-465-6367)
WX ASOS at MEM (19 nm W): 127.75 (901-332-3679)

Nearby radio navigation aids

VOR radial/distance  VOR name  Freq  Var
HLIr343/17.5HOLLY SPRINGS VORTAC112.4003E
MEMr082/19.9MEMPHIS VORTAC117.5001E

Airport Services

Fuel available: 100LL
Parking: hangars and tiedowns

Runway Information

Runway 18/36

Dimensions: 3106 x 100 ft. / 947 x 30 m
Surface: turf, in poor condition
Runway edge markings: RY, THLD AND DSPLCD THLD MARKED WITH 3 FT WHITE CONE EDGE MARKERS.
RUNWAY 18  RUNWAY 36
Latitude: 35-03.497167N35-02.985667N
Longitude: 089-34.787000W089-34.816167W
Elevation: 303.4 ft.305.0 ft.
Traffic pattern: rightleft
Displaced threshold: 1000 ft.no
Markings: , in fair condition, in fair condition
Obstructions: 71 ft. trees, 1005 ft. from runway, 17 ft. both sides of centerline, 14:1 slope to clear
APCH RATIO 19:1 FM DSPLCD THLD.
83 ft. trees, 732 ft. from runway, 100 ft. right of centerline, 8:1 slope to clear
APCH RATIO 11:1 FM DSPLCD THLD.

Airport Ownership and Management from official FAA records

Ownership: Privately-owned
Owner: MARY S. DEGAN
2799 SCARLET ROAD
GERMANTOWN, TN 38139
Phone (901) 493-8375
Manager: MARY DEGAN
2799 SCARLET ROAD
GERMANTOWN, TN 38139
Phone (901) 493-8375

Airport Operational Statistics

Aircraft based on the field: 39
Single engine airplanes: 34
Gliders airplanes: 5
    
Aircraft operations: avg 22/day *
88% local general aviation
9% transient general aviation
3% military
* for 12-month period ending 31 January 2019

Additional Remarks

FOR CD CTC MEMPHIS APCH AT 901-842-8457.

Instrument Procedures

There are no published instrument procedures at 54M.

Some nearby airports with instrument procedures:

KOLV - Olive Branch Airport (11 nm SW)
KFYE - Fayette County Airport (13 nm NE)
M41 - Holly Springs-Marshall County Airport (15 nm S)
KMEM - Memphis International Airport (19 nm W)
2M8 - Charles W Baker Airport (22 nm NW)
 
Loc | Ops | Rwys | IFR | FBO | Links
Com | Nav | Svcs | Stats | Notes
Area around 54M (Wolf River Airport)
 
Road maps at: MapQuest Bing Google
 
Aerial photo
WARNING: Photo may not be current or correct
Aerial photo of 54M (Wolf River Airport)
Do you have a better or more recent aerial photo of Wolf River Airport that you would like to share? If so, please send us your photo.

 
Sectional chart

 
Airport distance calculator
Flying to Wolf River Airport? Find the distance to fly.

From to 54M

Sunrise and sunset
Times for 14-Nov-2019
 Local
(UTC-6)
 Zulu
(UTC)
Morning civil twilight06:0612:06
Sunrise06:3312:33
Sunset16:5322:53
Evening civil twilight17:1923:19

Current date and time
Zulu (UTC)  15-Nov-2019 05:31:59
Local (UTC-6)  14-Nov-2019 23:31:59
 
METAR
KOLV 
11nm SW 
150515Z AUTO 34004KT 10SM CLR M00/M03 A3034 RMK A01
KFYE 
13nm NE 
150515Z AUTO 00000KT 10SM FEW030 M02/M04 A3033 RMK A01
KMEM 
20nm W 
150454Z 02005KT 10SM CLR 04/M02 A3035 RMK AO2 SLP277 T00391022
TAF
KMEM 
20nm W 
150259Z 1503/1606 34004KT P6SM SKC FM151500 36008KT P6SM SKC FM160000 02003KT P6SM SKC
NOTAMs
Click for the latest NOTAMs
NOTAMs are issued by the DoD/FAA and will open in a separate window not controlled by AirNav.

 

 
 

Would you like to see your business listed on this page?

 If your business provides an interesting product or service to pilots, flight crews, aircraft, or users of the Wolf River Airport, you should consider listing it here.  To start the listing process, click on the button below
 
Add a business
 

Other Pages about Wolf River Airport

Update a link
 
Copyright © AirNav, LLC. All rights reserved. Privacy Policy  Contact